Time,TemperatureF,DewpointF,PressureIn,WindDirection,WindDirectionDegrees,WindSpeedMPH,WindSpeedGustMPH,Humidity,HourlyPrecipIn,Conditions,Clouds,dailyrainin,SoftwareType,DateUTC
2013-07-11 00:04:00,65.7,11.7,29.97,ESE,115,7.0,11.6,12,0.00,,,-99.99,FreeWX 2.04,2013-07-11 06:04:00,
2013-07-11 00:14:00,65.7,11.7,29.97,ESE,115,7.0,13.4,12,0.00,,,-99.99,FreeWX 2.04,2013-07-11 06:14:00,
2013-07-11 00:24:00,65.1,13.1,29.97,ESE,122,8.0,12.5,13,0.00,,,-99.99,FreeWX 2.04,2013-07-11 06:24:00,
2013-07-11 00:34:00,65.5,11.5,29.97,ESE,118,8.0,11.2,12,0.00,,,-99.99,FreeWX 2.04,2013-07-11 06:34:00,
2013-07-11 00:44:00,65.3,-99.9,29.97,ESE,115,8.0,13.4,-999,0.00,,,-99.99,FreeWX 2.04,2013-07-11 06:44:00,
2013-07-11 00:54:00,65.5,-99.9,29.97,ESE,116,7.0,13.9,-999,0.00,,,-99.99,FreeWX 2.04,2013-07-11 06:54:00,
2013-07-11 01:04:00,64.9,-99.9,29.97,ESE,111,7.0,11.2,-999,0.00,,,-99.99,FreeWX 2.04,2013-07-11 07:04:00,
2013-07-11 01:14:00,65.1,-99.9,29.97,ESE,113,7.0,11.6,-999,0.00,,,-99.99,FreeWX 2.04,2013-07-11 07:14:00,
2013-07-11 01:24:00,64.8,-99.9,29.97,ESE,115,7.0,12.1,-999,0.00,,,-99.99,FreeWX 2.04,2013-07-11 07:24:00,
2013-07-11 01:34:00,64.0,-99.9,29.97,ESE,116,7.0,13.0,-999,0.00,,,-99.99,FreeWX 2.04,2013-07-11 07:34:00,
2013-07-11 01:44:00,64.0,-99.9,29.97,ESE,113,8.0,11.6,-999,0.00,,,-99.99,FreeWX 2.04,2013-07-11 07:44:00,
2013-07-11 01:54:00,63.7,-99.9,29.94,ESE,115,8.0,13.4,-999,0.00,,,-99.99,FreeWX 2.04,2013-07-11 07:54:00,
2013-07-11 02:04:00,63.7,-99.9,29.94,ESE,116,8.0,14.3,-999,0.00,,,-99.99,FreeWX 2.04,2013-07-11 08:04:00,
2013-07-11 02:14:00,63.7,-99.9,29.94,ESE,114,7.0,12.1,-999,0.00,,,-99.99,FreeWX 2.04,2013-07-11 08:14:00,
2013-07-11 02:24:00,63.7,-99.9,29.94,ESE,119,7.0,11.6,-999,0.00,,,-99.99,FreeWX 2.04,2013-07-11 08:24:00,
2013-07-11 02:34:00,64.2,-99.9,29.94,ESE,111,7.0,13.0,-999,0.00,,,-99.99,FreeWX 2.04,2013-07-11 08:34:00,
2013-07-11 02:44:00,64.2,-99.9,29.94,ESE,111,7.0,12.5,-999,0.00,,,-99.99,FreeWX 2.04,2013-07-11 08:44:00,
2013-07-11 02:54:00,64.8,-99.9,29.97,SE,131,6.0,11.2,-999,0.00,,,-99.99,FreeWX 2.04,2013-07-11 08:54:00,
2013-07-11 03:04:00,63.7,-99.9,29.97,ESE,107,6.0,11.6,-999,0.00,,,-99.99,FreeWX 2.04,2013-07-11 09:04:00,
2013-07-11 03:14:00,61.3,6.4,29.94,East,94,5.0,10.1,11,0.00,,,-99.99,FreeWX 2.04,2013-07-11 09:14:00,
2013-07-11 03:24:00,61.3,6.4,29.94,East,99,5.0,9.6,11,0.00,,,-99.99,FreeWX 2.04,2013-07-11 09:24:00,
2013-07-11 03:34:00,62.6,7.3,29.94,ESE,108,6.0,11.6,11,0.00,,,-99.99,FreeWX 2.04,2013-07-11 09:34:00,
2013-07-11 03:44:00,63.1,7.9,29.94,ESE,118,7.0,11.2,11,0.00,,,-99.99,FreeWX 2.04,2013-07-11 09:44:00,
2013-07-11 03:54:00,63.3,7.9,29.94,ESE,111,6.0,13.0,11,0.00,,,-99.99,FreeWX 2.04,2013-07-11 09:54:00,
2013-07-11 04:04:00,63.9,-99.9,29.94,ESE,119,6.0,9.2,-999,0.00,,,-99.99,FreeWX 2.04,2013-07-11 10:04:00,
2013-07-11 04:14:00,62.8,7.5,29.94,ESE,114,6.0,9.6,11,0.00,,,-99.99,FreeWX 2.04,2013-07-11 10:14:00,
2013-07-11 04:24:00,61.3,6.4,29.94,ESE,102,5.0,9.6,11,0.00,,,-99.99,FreeWX 2.04,2013-07-11 10:24:00,
2013-07-11 04:34:00,60.3,5.5,29.94,East,97,5.0,9.2,11,0.00,,,-99.99,FreeWX 2.04,2013-07-11 10:34:00,
2013-07-11 04:44:00,59.2,6.6,29.94,East,92,4.0,7.8,12,0.00,,,-99.99,FreeWX 2.04,2013-07-11 10:44:00,
2013-07-11 04:54:00,58.5,6.1,29.94,East,87,4.0,6.3,12,0.00,,,-99.99,FreeWX 2.04,2013-07-11 10:54:00,
2013-07-11 05:04:00,58.8,6.3,29.94,East,94,4.0,10.1,12,0.00,,,-99.99,FreeWX 2.04,2013-07-11 11:04:00,
2013-07-11 05:14:00,58.1,5.7,29.94,East,85,4.0,11.0,12,0.00,,,-99.99,FreeWX 2.04,2013-07-11 11:14:00,
2013-07-11 05:24:00,58.5,6.1,29.94,East,93,5.0,8.7,12,0.00,,,-99.99,FreeWX 2.04,2013-07-11 11:24:00,
2013-07-11 05:34:00,58.1,5.7,29.94,East,88,4.0,7.4,12,0.00,,,-99.99,FreeWX 2.04,2013-07-11 11:34:00,
2013-07-11 05:44:00,58.3,5.9,29.97,East,95,4.0,7.8,12,0.00,,,-99.99,FreeWX 2.04,2013-07-11 11:44:00,
2013-07-11 05:54:00,58.1,5.7,29.97,East,95,5.0,8.3,12,0.00,,,-99.99,FreeWX 2.04,2013-07-11 11:54:00,
2013-07-11 06:04:00,57.9,5.7,29.97,East,92,4.0,8.7,12,0.00,,,-99.99,FreeWX 2.04,2013-07-11 12:04:00,
2013-07-11 06:14:00,58.3,5.9,29.97,East,98,5.0,9.6,12,0.00,,,-99.99,FreeWX 2.04,2013-07-11 12:14:00,
2013-07-11 06:24:00,59.2,6.6,29.97,East,99,5.0,9.2,12,0.00,,,-99.99,FreeWX 2.04,2013-07-11 12:24:00,
2013-07-11 06:34:00,59.5,10.4,29.97,ESE,102,5.0,11.0,14,0.00,,,-99.99,FreeWX 2.04,2013-07-11 12:34:00,
2013-07-11 06:44:00,60.3,10.9,29.97,ESE,102,5.0,9.2,14,0.00,,,-99.99,FreeWX 2.04,2013-07-11 12:44:00,
2013-07-11 06:55:00,60.3,10.9,29.97,ESE,102,5.0,9.6,14,0.00,,,-99.99,FreeWX 2.04,2013-07-11 12:55:00,
2013-07-11 07:05:00,60.1,10.8,29.97,East,98,4.0,9.6,14,0.00,,,-99.99,FreeWX 2.04,2013-07-11 13:05:00,
2013-07-11 07:15:00,60.1,10.8,29.97,East,95,4.0,7.8,14,0.00,,,-99.99,FreeWX 2.04,2013-07-11 13:15:00,
2013-07-11 07:25:00,60.4,14.0,29.97,East,94,4.0,7.4,16,0.00,,,-99.99,FreeWX 2.04,2013-07-11 13:25:00,
2013-07-11 07:35:00,62.6,15.8,29.97,East,99,4.0,9.6,16,0.00,,,-99.99,FreeWX 2.04,2013-07-11 13:35:00,
2013-07-11 07:45:00,63.1,16.2,29.97,East,91,3.0,6.9,16,0.00,,,-99.99,FreeWX 2.04,2013-07-11 13:45:00,
2013-07-11 07:55:00,64.4,15.8,29.97,ESE,109,5.0,10.1,15,0.00,,,-99.99,FreeWX 2.04,2013-07-11 13:55:00,
2013-07-11 08:05:00,65.1,16.3,29.97,ESE,103,5.0,9.6,15,0.00,,,-99.99,FreeWX 2.04,2013-07-11 14:05:00,
2013-07-11 08:15:00,65.5,19.6,29.97,ESE,104,4.0,7.8,17,0.00,,,-99.99,FreeWX 2.04,2013-07-11 14:15:00,
2013-07-11 08:25:00,65.7,19.8,29.97,East,101,5.0,9.6,17,0.00,,,-99.99,FreeWX 2.04,2013-07-11 14:25:00,
2013-07-11 08:35:00,66.0,19.9,29.97,East,101,4.0,7.4,17,0.00,,,-99.99,FreeWX 2.04,2013-07-11 14:35:00,
2013-07-11 08:45:00,66.4,24.1,29.97,ESE,105,3.0,8.7,20,0.00,,,-99.99,FreeWX 2.04,2013-07-11 14:45:00,
2013-07-11 08:55:00,67.1,27.0,29.97,ESE,105,5.0,9.6,22,0.00,,,-99.99,FreeWX 2.04,2013-07-11 14:55:00,
2013-07-11 09:05:00,67.5,28.4,29.97,ESE,106,4.0,10.1,23,0.00,,,-99.99,FreeWX 2.04,2013-07-11 15:05:00,
2013-07-11 09:15:00,67.5,28.4,29.97,ESE,104,4.0,8.3,23,0.00,,,-99.99,FreeWX 2.04,2013-07-11 15:15:00,
2013-07-11 09:25:00,68.0,28.8,29.97,ESE,111,4.0,6.9,23,0.00,,,-99.99,FreeWX 2.04,2013-07-11 15:25:00,
2013-07-11 09:35:00,69.6,30.2,29.97,ESE,102,2.0,5.4,23,0.00,,,-99.99,FreeWX 2.04,2013-07-11 15:35:00,
2013-07-11 09:45:00,72.0,20.1,29.97,SE,140,2.0,8.7,14,0.00,,,-99.99,FreeWX 2.04,2013-07-11 15:45:00,
2013-07-11 09:55:00,74.3,-99.9,29.97,SSE,159,2.0,6.9,-999,0.00,,,-99.99,FreeWX 2.04,2013-07-11 15:55:00,
2013-07-11 10:05:00,74.8,-99.9,29.97,SSW,200,1.0,6.7,-999,0.00,,,-99.99,FreeWX 2.04,2013-07-11 16:05:00,
2013-07-11 10:15:00,75.6,-99.9,29.97,SSW,198,2.0,7.8,-999,0.00,,,-99.99,FreeWX 2.04,2013-07-11 16:15:00,
2013-07-11 10:25:00,76.3,-99.9,29.97,SSW,198,3.0,10.1,-999,0.00,,,-99.99,FreeWX 2.04,2013-07-11 16:25:00,
2013-07-11 10:35:00,76.3,-99.9,29.97,SSW,200,4.0,9.6,-999,0.00,,,-99.99,FreeWX 2.04,2013-07-11 16:35:00,
2013-07-11 10:45:00,76.8,-99.9,29.97,SSW,200,4.0,9.6,-999,0.00,,,-99.99,FreeWX 2.04,2013-07-11 16:45:00,
2013-07-11 10:55:00,76.1,-99.9,29.97,SW,230,5.0,13.0,-999,0.00,,,-99.99,FreeWX 2.04,2013-07-11 16:55:00,
2013-07-11 11:06:00,77.5,-99.9,29.97,WSW,243,5.0,11.6,-999,0.00,,,-99.99,FreeWX 2.04,2013-07-11 17:06:00,
2013-07-11 11:16:00,76.8,-99.9,29.97,WSW,244,6.0,11.6,-999,0.00,,,-99.99,FreeWX 2.04,2013-07-11 17:16:00,
2013-07-11 11:26:00,78.4,-99.9,29.97,SW,232,5.0,11.2,-999,0.00,,,-99.99,FreeWX 2.04,2013-07-11 17:26:00,
2013-07-11 11:36:00,78.8,-99.9,29.97,WSW,248,6.0,14.3,-999,0.00,,,-99.99,FreeWX 2.04,2013-07-11 17:36:00,
2013-07-11 11:46:00,79.3,-99.9,29.97,SW,233,5.0,13.9,-999,0.00,,,-99.99,FreeWX 2.04,2013-07-11 17:46:00,
2013-07-11 11:56:00,77.7,-99.9,29.97,WSW,249,7.0,13.4,-999,0.00,,,-99.99,FreeWX 2.04,2013-07-11 17:56:00,
2013-07-11 12:06:00,76.8,-99.9,29.97,WSW,237,6.0,11.0,-999,0.00,,,-99.99,FreeWX 2.04,2013-07-11 18:06:00,
2013-07-11 12:16:00,76.3,-99.9,29.97,WSW,238,5.0,11.2,-999,0.00,,,-99.99,FreeWX 2.04,2013-07-11 18:16:00,
2013-07-11 12:26:00,75.7,-99.9,29.97,SW,224,5.0,13.0,-999,0.00,,,-99.99,FreeWX 2.04,2013-07-11 18:26:00,
2013-07-11 12:36:00,77.0,-99.9,29.97,SW,220,4.0,9.6,-999,0.00,,,-99.99,FreeWX 2.04,2013-07-11 18:36:00,
2013-07-11 12:46:00,76.1,-99.9,29.97,WSW,252,5.0,12.5,-999,0.00,,,-99.99,FreeWX 2.04,2013-07-11 18:46:00,
2013-07-11 12:56:00,75.9,-99.9,29.97,WSW,241,6.0,15.2,-999,0.00,,,-99.99,FreeWX 2.04,2013-07-11 18:56:00,
2013-07-11 13:06:00,77.0,-99.9,29.97,WSW,256,5.0,13.4,-999,0.00,,,-99.99,FreeWX 2.04,2013-07-11 19:06:00,
2013-07-11 13:16:00,77.2,-99.9,29.97,SW,230,5.0,11.2,-999,0.00,,,-99.99,FreeWX 2.04,2013-07-11 19:16:00,
2013-07-11 13:26:00,74.7,-99.9,29.97,WSW,257,4.0,8.3,-999,0.00,,,-99.99,FreeWX 2.04,2013-07-11 19:26:00,
2013-07-11 13:36:00,74.3,-99.9,29.97,WSW,246,4.0,10.5,-999,0.00,,,-99.99,FreeWX 2.04,2013-07-11 19:36:00,
2013-07-11 13:46:00,74.7,-99.9,29.97,WSW,257,4.0,9.2,-999,0.00,,,-99.99,FreeWX 2.04,2013-07-11 19:46:00,
2013-07-11 13:56:00,76.5,-99.9,29.97,West,261,4.0,13.4,-999,0.00,,,-99.99,FreeWX 2.04,2013-07-11 19:56:00,
2013-07-11 14:06:00,80.1,-99.9,29.97,SW,236,5.0,10.1,-999,0.00,,,-99.99,FreeWX 2.04,2013-07-11 20:06:00,
2013-07-11 14:27:00,79.5,-99.9,29.97,SW,224,5.0,11.6,-999,0.00,,,-99.99,FreeWX 2.04,2013-07-11 20:27:00,
2013-07-11 14:37:00,77.9,-99.9,29.97,WSW,252,5.0,11.0,-999,0.00,,,-99.99,FreeWX 2.04,2013-07-11 20:37:00,
2013-07-11 14:57:00,77.4,-99.9,29.97,WSW,242,4.0,11.0,-999,0.00,,,-99.99,FreeWX 2.04,2013-07-11 20:57:00,
2013-07-11 15:18:00,75.6,-99.9,29.97,West,260,6.0,14.3,-999,0.00,,,-99.99,FreeWX 2.04,2013-07-11 21:18:00,
2013-07-11 15:28:00,74.5,-99.9,29.97,West,277,6.0,12.5,-999,0.00,,,-99.99,FreeWX 2.04,2013-07-11 21:28:00,
2013-07-11 15:38:00,73.8,16.0,29.97,WSW,258,3.0,11.0,11,0.00,,,-99.99,FreeWX 2.04,2013-07-11 21:38:00,
2013-07-11 15:48:00,73.9,16.2,29.97,WSW,244,3.0,7.8,11,0.00,,,-99.99,FreeWX 2.04,2013-07-11 21:48:00,
2013-07-11 15:58:00,74.7,-99.9,29.97,West,265,5.0,11.2,-999,0.00,,,-99.99,FreeWX 2.04,2013-07-11 21:58:00,
2013-07-11 16:08:00,72.9,15.3,29.97,West,272,6.0,16.3,11,0.00,,,-99.99,FreeWX 2.04,2013-07-11 22:08:00,
2013-07-11 16:18:00,72.5,15.1,29.97,WNW,287,6.0,12.1,11,0.00,,,-99.99,FreeWX 2.04,2013-07-11 22:18:00,
2013-07-11 16:28:00,74.5,-99.9,29.97,West,263,4.0,11.0,-999,0.00,,,-99.99,FreeWX 2.04,2013-07-11 22:28:00,
2013-07-11 16:38:00,74.1,16.3,29.97,WSW,257,5.0,12.1,11,0.00,,,-99.99,FreeWX 2.04,2013-07-11 22:38:00,
2013-07-11 16:48:00,71.6,14.4,29.97,WSW,257,6.0,14.8,11,0.00,,,-99.99,FreeWX 2.04,2013-07-11 22:48:00,
2013-07-11 16:58:00,70.5,15.4,29.97,West,262,6.0,13.0,12,0.00,,,-99.99,FreeWX 2.04,2013-07-11 22:58:00,
2013-07-11 17:08:00,69.8,14.9,30.00,West,271,6.0,16.3,12,0.00,,,-99.99,FreeWX 2.04,2013-07-11 23:08:00,
2013-07-11 17:18:00,70.2,15.3,30.00,West,270,4.0,13.0,12,0.00,,,-99.99,FreeWX 2.04,2013-07-11 23:18:00,
2013-07-11 17:28:00,69.6,14.7,30.00,WSW,246,4.0,13.0,12,0.00,,,-99.99,FreeWX 2.04,2013-07-11 23:28:00,
2013-07-11 17:38:00,68.7,14.0,30.00,WSW,246,4.0,10.1,12,0.00,,,-99.99,FreeWX 2.04,2013-07-11 23:38:00,
2013-07-11 17:49:00,68.0,13.5,30.00,WSW,254,5.0,10.1,12,0.00,,,-99.99,FreeWX 2.04,2013-07-11 23:49:00,
2013-07-11 17:58:00,67.5,13.1,30.00,West,262,4.0,11.6,12,0.00,,,-99.99,FreeWX 2.04,2013-07-11 23:58:00,
2013-07-11 18:08:00,66.6,12.4,30.00,WSW,250,3.0,8.7,12,0.00,,,-99.99,FreeWX 2.04,2013-07-12 00:08:00,
2013-07-11 18:18:00,66.4,17.4,30.00,West,267,4.0,10.5,15,0.00,,,-99.99,FreeWX 2.04,2013-07-12 00:18:00,
2013-07-11 18:29:00,66.2,17.2,30.00,West,280,1.0,6.9,15,0.00,,,-99.99,FreeWX 2.04,2013-07-12 00:29:00,
2013-07-11 18:39:00,65.8,16.9,30.00,West,270,2.0,9.2,15,0.00,,,-99.99,FreeWX 2.04,2013-07-12 00:39:00,
2013-07-11 18:49:00,65.3,16.5,30.00,West,274,4.0,8.3,15,0.00,,,-99.99,FreeWX 2.04,2013-07-12 00:49:00,
2013-07-11 18:59:00,62.6,29.1,30.00,NNW,341,6.0,11.0,28,0.00,,,-99.99,FreeWX 2.04,2013-07-12 00:59:00,
2013-07-11 19:09:00,62.1,27.7,30.00,North,8,7.0,13.9,27,0.00,,,-99.99,FreeWX 2.04,2013-07-12 01:09:00,
2013-07-11 19:19:00,61.7,29.1,30.00,North,6,6.0,12.1,29,0.00,,,-99.99,FreeWX 2.04,2013-07-12 01:19:00,
2013-07-11 19:29:00,61.2,30.2,30.00,North,3,6.0,9.6,31,0.00,,,-99.99,FreeWX 2.04,2013-07-12 01:29:00,
2013-07-11 19:39:00,60.6,31.3,30.03,North,8,6.0,11.2,33,0.00,,,-99.99,FreeWX 2.04,2013-07-12 01:39:00,
2013-07-11 19:49:00,60.1,31.6,30.03,North,357,7.0,12.5,34,0.00,,,-99.99,FreeWX 2.04,2013-07-12 01:49:00,
2013-07-11 19:59:00,59.9,31.5,30.03,North,10,5.0,9.2,34,0.00,,,-99.99,FreeWX 2.04,2013-07-12 01:59:00,
2013-07-11 20:09:00,59.7,32.0,30.03,NNE,16,5.0,9.6,35,0.00,,,-99.99,FreeWX 2.04,2013-07-12 02:09:00,
2013-07-11 20:19:00,58.6,32.4,30.03,North,7,6.0,10.5,37,0.00,,,-99.99,FreeWX 2.04,2013-07-12 02:19:00,
2013-07-11 20:29:00,57.4,35.1,30.03,North,356,7.0,10.5,43,0.00,,,-99.99,FreeWX 2.04,2013-07-12 02:29:00,
2013-07-11 20:39:00,57.0,34.7,30.03,North,350,6.0,9.6,43,0.00,,,-99.99,FreeWX 2.04,2013-07-12 02:39:00,
2013-07-11 20:49:00,56.1,37.2,30.03,NNW,347,6.0,10.1,49,0.00,,,-99.99,FreeWX 2.04,2013-07-12 02:49:00,
2013-07-11 20:59:00,55.6,37.8,30.03,NNW,347,6.0,9.6,51,0.00,,,-99.99,FreeWX 2.04,2013-07-12 02:59:00,
2013-07-11 21:09:00,55.2,38.3,30.03,NNW,343,6.0,9.6,53,0.00,,,-99.99,FreeWX 2.04,2013-07-12 03:09:00,
2013-07-11 21:19:00,54.9,38.5,30.03,NNW,348,4.0,6.9,54,0.00,,,-99.99,FreeWX 2.04,2013-07-12 03:19:00,
2013-07-11 21:29:00,54.5,38.1,30.03,North,351,1.0,4.9,54,0.00,,,-99.99,FreeWX 2.04,2013-07-12 03:29:00,
2013-07-11 21:39:00,54.5,37.8,30.03,North,-999,0.0,3.6,53,0.00,,,-99.99,FreeWX 2.04,2013-07-12 03:39:00,
2013-07-11 21:49:00,54.7,39.4,30.03,North,-999,0.0,0.0,56,0.00,,,-99.99,FreeWX 2.04,2013-07-12 03:49:00,
2013-07-11 22:00:00,54.9,38.5,30.03,North,358,1.0,4.9,54,0.00,,,-99.99,FreeWX 2.04,2013-07-12 04:00:00,
2013-07-11 22:10:00,54.7,37.9,30.00,SE,127,1.0,4.5,53,0.00,,,-99.99,FreeWX 2.04,2013-07-12 04:10:00,
2013-07-11 22:20:00,54.9,36.5,30.00,ESE,118,3.0,8.3,50,0.00,,,-99.99,FreeWX 2.04,2013-07-12 04:20:00,
2013-07-11 22:30:00,55.2,36.3,30.00,SE,127,5.0,10.1,49,0.00,,,-99.99,FreeWX 2.04,2013-07-12 04:30:00,
2013-07-11 22:40:00,55.2,36.0,29.97,SE,126,6.0,11.6,48,0.00,,,-99.99,FreeWX 2.04,2013-07-12 04:40:00,
2013-07-11 22:50:00,56.1,35.6,29.97,ESE,119,7.0,12.5,46,0.00,,,-99.99,FreeWX 2.04,2013-07-12 04:50:00,
2013-07-11 23:00:00,56.3,34.7,29.97,SE,128,8.0,14.3,44,0.00,,,-99.99,FreeWX 2.04,2013-07-12 05:00:00,
2013-07-11 23:10:00,56.8,32.7,29.97,ESE,123,7.0,11.2,40,0.00,,,-99.99,FreeWX 2.04,2013-07-12 05:10:00,
2013-07-11 23:20:00,57.0,32.4,29.97,ESE,104,6.0,12.5,39,0.00,,,-99.99,FreeWX 2.04,2013-07-12 05:20:00,
2013-07-11 23:30:00,56.7,32.5,29.97,ESE,107,5.0,9.2,40,0.00,,,-99.99,FreeWX 2.04,2013-07-12 05:30:00,
2013-07-11 23:40:00,56.3,32.4,29.97,ESE,116,3.0,6.9,40,0.00,,,-99.99,FreeWX 2.04,2013-07-12 05:40:00,
2013-07-11 23:50:00,56.5,33.1,29.97,SSE,166,1.0,4.9,41,0.00,,,-99.99,FreeWX 2.04,2013-07-12 05:50:00,